Regional Weather Roundup
Issued by NWS

Home | Current Version | Previous Version | Graphics & Text | Print | Product List | Glossary On
Versions: 1 2 3 4 5 6 7 8 9 10 11 12 13 14 15 16 17 18 19 20 21 22 23 24 25 26 27 28 29 30 31 32 33 34 35 36 37 38 39 40 41 42 43 44 45 46 47 48 49 50
000
ASUS45 KCYS 052110
RWRWY

WYOMING REGIONAL WEATHER ROUNDUP
NATIONAL WEATHER SERVICE CHEYENNE WY
300 PM MDT TUE MAY 05 2015

NOTE:  "FAIR" INDICATES FEW OR NO CLOUDS BELOW 12,000 FEET
WITH NO SIGNIFICANT WEATHER AND/OR OBSTRUCTIONS TO VISIBILITY.

WYZ001-052200-
YELLOWSTONE NATIONAL PARK

CITY           SKY/WX    TMP DP  RH WIND       PRES   REMARKS
LK YELLOWSTONE   N/A     55  31  39 E5        29.92F
W YELLOWSTONE  NOT AVBL

$$
WYZ002>013-054>058-071-098>099-052200-
NORTHERN WYOMING

CITY           SKY/WX    TMP DP  RH WIND       PRES   REMARKS
JACKSON        PTSUNNY   64  34  32 VRB6      29.82F
CODY           PTSUNNY   66  36  32 W10G24    29.76F
GREYBULL       FAIR      79  31  17 SW6       29.68F
WORLAND        FAIR      77  36  22 VRB3      29.70F
SHERIDAN       FAIR      69  44  40 SE15      29.75F
BUFFALO        FAIR      67  45  45 SE13      29.82F
GILLETTE       FAIR      68  48  48 SE15G25   29.81F
HULETT         FAIR      73  43  33 SW12G20   29.84F
NEWCASTLE      FAIR      64  45  48 SE20G26   29.88F

$$
WYZ014>020-022>026-101>103-052200-
CENTRAL WYOMING

CITY           SKY/WX    TMP DP  RH WIND       PRES   REMARKS
BIG PINEY      FAIR      61  33  35 NW6       29.85F
PINEDALE       FAIR      63  32  31 CALM      29.85F
DUBOIS         MOCLDY    59  32  36 NW5G10    29.84F
LANDER         FAIR      66  40  38 CALM      29.77F
RIVERTON       FAIR      67  38  34 E6        29.79F
CASPER         FAIR      68  46  45 E10G21    29.79F
DOUGLAS        FAIR      66  48  52 SE28G35   29.84F

$$
WYZ021-027>030-104>119-052200-
SOUTHERN WYOMING

CITY           SKY/WX    TMP DP  RH WIND       PRES   REMARKS
EVANSTON       RAIN      47  43  86 NW6       29.91R FOG
KEMMERER       CLOUDY    55  36  47 E8        29.88S
FORT BRIDGER   DRIZZLE   50  45  81 S15G21    29.91S
ROCK SPRINGS   FAIR      66  33  29 VRB7      29.82F
DIXON          MOCLDY    65  37  35 NE18G25   29.83S
RAWLINS        FAIR      67  33  28 NE6G17    29.83F
SARATOGA       FAIR      63  36  36 N6        29.83F
LARAMIE        FAIR      53  41  63 SE25G35   29.88S
CHEYENNE       FOG       48  47  96 S16       29.92F VSB 1/4
TORRINGTON     CLOUDY    60  49  66 SE18G24   29.87F
PINE BLUFFS    LGT RAIN  50  48  93 SE10G21   29.93F

$$


USA.gov is the U.S. government's official web portal to all federal, state and local government web resources and services.